Dewpoint
50 51 51 52 52 52 52 52 52 52 53 53 53 53 53 52 49 49 49 49 48 48 48 48 48 46 47 48 49 49 50 43 40 39 37 36 47 57 56 56 54 55 55 32 25 23 22 23 23 20 21 21 20 20 21 19 16 15 13 9 6 3 0 -2 -6 -7 -5 -6 -10 -11 -6 -4 -7 -2 -7 3 1 11 18 19 25 32 32 40 60 62 64 65
49 49 51 51 51 51 51 51 51 51 52 52 52 53 53 53 53 51 49 49 49 48 48 48 48 47 47 48 49 50 47 43 41 39 38 44 60 58 55 56 52 54 47 25 21 20 18 17 20 19 17 16 16 15 18 17 17 14 14 10 5 2 1 1 -1 -3 -4 -5 -7 -5 0 -6 -3 -4 -6 7 15 13 17 21 22 28 31 56 62 64 64 64
47 48 49 50 50 50 50 50 51 51 51 51 52 52 53 53 52 52 52 50 49 49 48 48 47 47 48 49 49 50 45 41 40 37 36 58 56 56 57 56 56 56 38 25 19 20 18 16 16 16 14 14 14 13 15 15 15 14 14 9 7 7 4 3 2 2 1 -2 -5 -7 -7 1 0 -3 6 11 11 9 15 27 25 25 52 55 57 61 63 64
46 47 48 49 48 48 49 49 50 50 50 50 51 51 52 52 53 53 52 52 52 50 48 48 48 47 48 48 49 46 41 39 34 34 43 53 53 53 54 56 56 54 41 32 25 18 18 17 15 14 13 12 12 12 12 12 13 14 12 10 10 8 4 1 0 1 2 -1 -5 -3 -1 3 4 2 3 4 6 6 3 9 28 33 44 58 62 64 64 65
46 47 48 48 47 47 48 48 49 49 50 50 50 50 51 51 52 52 53 52 51 52 49 48 48 47 47 47 49 41 37 32 22 38 39 51 50 51 53 53 53 46 41 33 27 24 25 25 19 14 12 11 11 11 10 11 10 13 14 13 11 7 2 2 1 0 -1 -1 2 2 0 2 6 5 4 4 3 4 4 5 19 24 42 57 62 64 65 65
46 47 47 47 47 47 47 48 48 48 49 49 50 50 50 50 51 52 52 53 52 51 52 49 48 47 47 48 42 39 37 25 34 34 44 53 51 53 50 52 55 48 42 38 30 22 22 25 23 14 13 12 10 8 9 10 9 9 15 16 13 8 3 1 -0 -1 -3 -3 2 4 4 2 -0 4 6 3 5 7 6 7 27 32 39 59 65 64 65 65
46 46 46 46 47 47 47 47 48 48 47 48 49 49 50 50 50 51 51 53 53 52 51 50 48 48 48 49 40 35 32 33 33 37 54 54 50 50 51 53 56 44 40 39 32 24 20 21 20 14 12 13 12 8 6 8 8 7 10 13 11 9 5 2 0 -0 6 8 7 6 5 3 1 1 3 5 9 8 7 10 29 36 36 53 55 61 64 65
45 45 45 46 46 46 46 47 47 47 47 47 47 48 49 49 50 50 51 51 52 52 51 50 48 48 48 41 36 31 30 30 30 35 52 51 37 42 52 35 33 38 34 35 33 25 19 19 17 12 11 13 13 9 5 4 7 7 10 12 10 7 6 4 2 -0 6 9 9 7 5 4 3 -0 -1 -0 8 9 9 9 22 37 36 56 56 60 62 64
46 45 45 44 45 45 45 46 46 46 46 46 47 47 48 49 49 49 50 50 51 52 51 50 49 48 49 42 37 33 30 30 29 37 37 32 26 26 28 23 22 39 34 29 32 25 20 17 15 11 8 11 13 9 7 3 4 7 8 10 10 8 7 5 2 0 4 8 11 11 9 7 3 1 0 6 9 8 8 11 17 35 36 42 48 55 58 65
48 48 46 45 45 45 45 45 45 45 46 46 46 46 47 48 49 49 50 50 50 51 51 51 51 49 44 38 36 31 31 29 26 26 29 29 28 28 27 25 25 30 37 31 28 27 19 17 14 11 7 6 10 9 5 3 2 4 6 7 8 9 7 5 7 5 5 7 10 11 10 7 5 4 6 11 11 12 11 9 28 34 35 43 49 57 62 64
47 47 47 46 46 46 46 46 45 45 45 45 45 45 46 47 48 49 49 49 50 50 51 50 49 48 42 39 34 31 33 30 26 28 30 30 28 27 24 24 24 22 26 32 28 25 22 18 15 10 7 6 7 7 7 4 2 0 2 6 7 7 7 6 6 8 6 5 9 10 9 8 6 5 5 7 10 15 11 9 34 34 36 53 57 60 64 65
47 46 46 46 46 46 46 46 46 46 45 44 45 45 45 46 47 48 49 49 49 50 51 51 50 46 43 39 37 34 35 34 35 35 33 30 28 27 26 25 26 25 24 30 32 25 23 19 16 10 5 7 5 7 7 7 4 0 0 1 2 4 5 7 5 6 9 8 10 10 8 7 6 4 5 5 4 18 12 12 32 32 36 53 57 60 63 63
46 46 46 45 46 45 46 46 46 46 46 44 44 44 45 45 46 47 48 48 48 49 50 50 49 46 44 39 38 38 38 37 36 35 33 31 29 28 27 27 26 27 26 24 28 31 24 20 17 11 8 6 5 6 8 8 6 3 2 1 5 9 8 8 6 5 9 11 10 7 6 5 3 4 4 3 4 6 23 26 29 29 39 42 58 60 62 64
46 46 45 45 45 45 46 45 46 45 45 45 44 44 44 45 45 46 47 47 48 49 50 51 47 45 42 40 39 39 38 37 36 35 33 32 29 28 27 25 25 26 26 24 24 27 30 22 17 12 10 7 6 6 6 6 6 5 3 1 4 7 7 9 6 3 6 10 9 6 6 4 3 3 4 2 1 18 33 32 28 32 38 41 56 59 62 64
45 45 45 46 45 45 45 45 45 45 45 45 45 44 44 44 45 46 46 47 47 48 49 49 47 43 41 38 38 38 45 39 36 34 33 30 27 26 25 25 23 24 24 23 22 24 27 25 16 10 8 9 7 7 5 6 6 5 3 3 4 5 5 5 5 1 5 7 8 6 8 6 5 2 2 1 3 18 33 34 29 36 41 52 55 59 62 63
45 45 45 44 45 44 45 44 44 44 44 44 44 44 43 44 45 45 46 46 48 49 47 45 44 43 39 35 33 39 31 33 35 35 35 32 28 25 23 22 22 22 23 22 20 21 26 27 18 12 8 7 6 7 6 4 3 5 4 5 4 5 3 2 1 0 3 6 7 7 5 6 4 2 1 2 4 10 31 33 31 36 43 60 59 60 61 63
45 45 45 45 44 45 44 44 44 44 44 44 44 44 44 44 45 45 45 45 43 45 42 40 40 39 34 34 34 31 29 28 29 31 33 32 29 26 23 21 18 20 22 21 18 18 22 24 23 17 11 6 5 7 8 7 3 4 3 5 4 1 2 1 -0 0 3 5 4 8 6 5 3 0 2 22 12 5 26 36 34 47 57 57 58 58 58 59
45 45 45 44 45 45 44 44 44 43 44 44 44 43 41 45 46 45 44 43 36 37 39 39 38 38 33 34 30 29 28 26 25 26 27 29 28 25 23 21 19 19 20 18 17 15 19 20 18 14 10 6 5 7 9 7 8 8 8 8 3 2 3 -0 -5 -3 3 4 3 6 7 5 3 1 -1 -2 5 5 19 34 56 56 56 57 57 55 57 57
46 45 45 45 45 44 43 43 44 43 43 45 44 46 46 47 42 38 35 34 35 35 32 31 36 28 15 25 30 29 28 26 25 24 22 24 25 23 22 22 19 18 16 15 14 15 16 15 14 11 6 4 3 5 7 7 7 5 4 5 4 3 -1 -3 -5 -5 2 4 3 1 3 5 6 3 1 1 2 7 15 55 56 56 55 57 57 58 58 59
46 45 45 45 45 44 43 44 43 43 43 42 36 35 33 28 36 38 37 34 30 29 27 25 34 31 28 25 22 25 28 27 24 25 23 21 21 19 19 20 18 15 15 15 15 15 15 13 11 9 7 3 4 6 7 6 7 5 4 5 4 -1 -3 -2 -4 -8 2 4 5 3 1 5 7 5 4 3 8 10 52 55 55 55 56 56 56 57 58 58
46 46 45 45 45 45 43 44 43 43 43 39 37 34 27 24 18 19 29 31 35 30 28 27 28 31 28 26 25 24 17 19 21 21 23 22 20 16 15 17 16 13 14 14 15 17 14 13 11 7 7 6 6 8 8 4 5 5 1 1 2 -0 -4 -4 -5 -7 5 10 4 6 0 3 7 7 4 4 7 17 55 54 54 54 55 55 54 56 57 59
46 46 46 46 45 44 44 44 44 43 43 40 36 32 29 26 25 25 32 28 28 31 32 29 26 27 31 29 28 27 27 21 20 19 20 21 21 16 16 16 14 10 13 13 16 17 14 12 9 8 6 6 7 6 5 5 5 5 3 1 2 0 -3 -5 -5 -5 -1 6 7 4 1 0 6 5 4 8 21 45 55 54 54 54 55 55 56 58 58 60
46 46 46 45 44 44 43 43 44 45 41 37 34 32 30 29 26 32 29 29 29 29 29 31 30 26 24 25 24 24 24 22 18 19 16 18 20 17 15 15 14 10 10 12 14 17 15 10 10 6 4 3 1 1 3 7 7 6 3 3 0 -1 -3 -4 -4 -4 -3 8 7 5 1 2 7 9 10 8 37 54 54 54 55 55 55 56 58 58 59 59
46 45 46 45 44 43 44 43 45 43 39 37 35 33 31 31 33 30 33 30 27 24 23 24 29 29 27 24 23 22 22 21 20 20 16 16 18 18 14 13 12 10 9 10 12 13 11 10 9 6 3 1 1 3 5 7 6 6 2 1 -2 -2 -2 -5 -4 -5 -3 3 5 0 4 3 4 5 5 26 53 53 53 55 56 55 57 58 58 58 59 58
46 46 46 45 44 43 43 44 39 37 36 33 33 33 36 38 38 41 39 33 30 25 25 22 24 26 28 28 26 21 20 21 20 21 19 15 16 15 13 13 11 8 8 9 11 12 12 10 8 5 3 2 2 2 3 3 6 5 4 1 1 1 -1 -4 -2 -5 1 5 2 1 3 5 8 4 4 28 50 52 53 52 53 55 57 57 57 58 58 59
45 45 46 45 44 43 44 39 35 33 32 31 33 32 37 35 39 38 37 26 18 16 14 17 18 18 25 25 26 24 22 19 21 21 21 18 19 15 13 11 10 7 8 9 8 11 10 9 6 5 3 1 1 2 4 5 6 7 2 2 2 3 0 -4 -1 1 5 4 3 4 3 9 6 4 6 8 50 50 52 51 52 55 56 56 57 58 59 59
45 45 45 45 45 44 38 33 35 34 30 32 37 39 35 36 42 38 29 18 15 16 12 10 16 16 21 21 23 22 15 18 20 21 21 21 19 19 12 10 10 9 8 11 12 7 10 9 6 6 4 3 2 4 6 6 4 1 1 1 3 5 2 -1 -2 2 6 6 4 3 2 4 4 6 8 7 52 49 50 51 51 54 55 55 56 58 58 59
45 45 45 45 45 43 39 38 36 34 32 39 43 37 36 37 40 40 30 12 10 12 12 9 15 17 17 18 19 17 19 18 17 18 20 20 21 19 14 9 8 7 8 8 9 8 12 9 7 6 5 4 4 5 5 4 2 1 0 2 5 8 7 -2 -3 1 5 7 6 6 3 3 4 11 9 7 39 46 48 51 53 53 55 55 56 57 58 59
45 44 45 45 45 45 44 40 36 33 38 35 38 37 39 40 37 28 19 13 23 20 19 11 19 20 16 16 16 17 18 17 16 17 18 19 19 18 15 13 9 6 6 7 9 8 9 9 7 7 6 4 7 7 4 2 2 2 4 7 8 7 3 -4 -2 -3 3 8 12 5 0 0 0 6 7 9 21 44 46 49 51 53 56 55 55 58 59 59
46 46 44 45 44 41 42 43 42 40 39 37 39 37 37 38 31 20 16 9 34 22 31 26 18 17 17 15 15 16 17 16 15 15 16 16 16 17 16 15 9 5 5 6 8 8 8 15 14 8 6 5 7 7 4 4 4 2 4 5 3 2 4 6 8 4 6 10 8 4 -2 -3 -1 2 5 14 35 46 44 46 50 53 55 55 56 57 60 60
46 46 45 45 41 39 38 37 39 37 40 42 40 38 37 34 22 14 10 17 28 31 32 26 22 17 16 15 15 16 17 17 11 12 13 15 14 15 15 12 12 5 6 7 7 9 9 9 8 8 9 6 6 6 6 6 5 2 3 1 1 4 5 8 10 8 11 7 4 3 -0 -3 1 3 2 12 18 44 45 42 47 51 53 54 55 57 57 58
47 46 46 45 42 40 41 35 37 38 38 42 37 35 32 21 22 15 12 29 20 28 28 29 32 33 19 17 16 15 15 17 13 11 12 13 14 14 14 13 12 8 5 7 7 8 7 7 9 8 13 5 6 5 5 3 0 0 3 1 4 4 7 7 8 11 6 6 7 3 1 -2 0 11 6 2 9 36 48 45 47 49 52 55 55 56 58 58
46 46 47 45 44 42 37 38 37 43 43 40 36 34 26 18 10 11 12 24 20 30 27 32 32 29 27 18 17 16 16 15 11 9 12 13 12 13 14 12 11 10 6 11 8 9 9 9 10 9 5 8 1 2 3 1 2 3 5 5 7 5 6 11 7 9 6 5 3 3 2 1 6 7 9 12 17 21 40 47 47 45 49 49 55 56 58 58
47 46 45 43 41 39 40 41 39 39 39 40 35 28 22 16 13 28 25 25 26 30 30 30 29 28 28 19 18 13 13 15 9 8 10 12 12 15 14 14 11 8 7 12 7 7 11 8 7 2 0 -3 -3 5 4 3 6 5 4 -0 7 8 7 11 5 9 9 7 6 3 2 7 4 14 13 17 17 24 25 36 43 48 46 53 53 55 56 57
47 48 46 44 44 42 42 38 39 40 38 37 31 24 17 16 19 22 23 27 28 29 28 29 28 27 23 21 20 12 13 14 11 10 10 11 12 13 14 13 12 8 6 10 13 16 9 9 7 7 9 8 7 5 3 -1 -2 -2 -2 -3 5 9 9 5 10 9 11 8 10 7 11 9 11 35 24 16 12 26 30 43 40 43 45 52 54 55 57 59
46 45 45 44 41 40 40 34 37 39 36 36 27 21 17 19 18 27 26 32 30 28 28 29 26 26 23 20 19 6 9 12 11 11 9 8 10 12 12 12 10 8 8 11 15 11 8 12 9 11 12 11 10 10 6 -4 4 2 -3 1 5 8 5 16 18 18 25 18 9 12 12 15 33 30 31 22 17 19 24 41 39 40 42 49 55 58 58 59
41 42 41 41 37 37 37 35 35 39 36 31 24 19 23 26 26 26 30 27 29 32 29 24 26 26 24 19 16 7 9 13 11 9 9 7 9 10 11 11 12 8 7 12 15 10 14 14 13 9 6 11 11 11 6 -4 -1 -1 -1 -3 3 6 6 16 10 16 14 11 13 10 7 6 24 23 32 24 27 24 23 28 45 47 48 49 56 57 57 58
43 40 40 38 35 36 37 37 38 39 33 30 25 27 25 22 23 23 25 27 31 31 28 26 26 30 28 21 17 6 9 13 12 9 9 7 9 9 9 7 8 8 8 8 14 13 14 13 12 13 12 12 9 6 1 1 0 -2 -2 -2 4 11 9 9 17 14 13 14 10 9 6 7 10 21 25 27 26 28 25 27 37 48 48 52 56 56 56 57
44 41 36 36 36 36 37 39 38 36 33 28 26 24 26 21 20 23 23 28 32 31 27 29 26 28 30 26 25 8 8 13 11 9 9 8 7 10 9 7 6 7 7 9 14 17 16 15 13 13 12 11 7 4 7 -2 -4 -2 -1 -1 2 6 11 12 13 12 13 12 14 8 6 10 9 14 26 27 28 29 27 28 30 37 47 51 55 55 55 56
42 39 33 38 37 38 39 39 36 34 32 26 25 25 25 19 21 20 22 30 30 29 27 26 29 27 27 30 31 25 7 11 10 9 7 11 7 9 8 6 4 5 6 8 10 12 15 25 16 12 11 7 7 7 3 -2 3 2 2 1 0 13 3 4 14 6 10 12 10 10 10 13 18 12 21 24 29 33 33 32 36 37 49 52 55 56 55 55
40 36 34 40 39 38 39 36 33 31 30 30 32 27 24 21 24 23 26 30 30 32 30 30 29 27 28 28 27 26 20 10 11 10 7 7 7 11 7 5 5 5 7 7 7 14 18 15 21 12 9 8 5 1 -0 4 2 2 2 1 -3 2 3 3 9 4 5 9 15 11 12 17 33 26 25 25 32 31 29 31 34 34 38 55 55 56 57 57
39 31 31 40 41 40 37 32 32 33 31 27 23 22 24 30 25 25 27 28 30 31 34 33 33 32 31 31 31 30 25 12 11 9 7 9 11 9 8 6 6 5 6 12 9 11 22 24 21 15 11 9 8 8 8 8 6 3 -1 0 -2 5 5 4 7 10 4 5 8 12 12 22 41 34 31 35 32 29 28 29 33 33 37 55 57 58 59 59
35 31 40 41 42 37 34 32 32 31 28 30 25 25 28 29 28 29 30 32 33 33 35 34 33 33 34 33 30 28 29 21 10 8 7 7 12 9 7 6 6 6 7 9 5 13 23 21 17 14 12 10 9 10 10 9 5 2 1 1 -2 1 1 7 10 14 11 11 10 17 14 26 41 43 43 43 36 31 33 33 33 44 57 58 58 58 59 59
36 36 35 42 41 39 31 27 23 22 24 23 25 27 29 31 32 33 34 34 34 35 33 34 33 34 33 34 33 28 29 20 9 9 8 9 14 11 8 4 3 3 8 13 13 23 19 22 16 14 12 10 10 9 7 8 7 7 6 7 3 -1 -0 8 8 20 16 14 10 11 10 26 42 45 43 42 32 30 29 40 53 57 57 58 58 58 59 59
38 37 36 36 40 37 29 28 27 26 26 27 27 28 28 30 32 34 35 34 37 35 36 34 33 33 32 33 32 30 26 14 14 10 10 9 17 11 6 6 7 5 4 10 37 15 17 21 19 13 13 12 11 11 11 13 9 9 2 3 4 1 7 13 11 14 15 18 9 14 21 35 40 42 40 42 51 52 54 55 56 56 56 56 57 58 58 58
34 30 31 32 38 36 33 34 34 32 30 30 29 29 29 29 31 33 35 35 35 36 36 34 33 33 31 30 29 25 23 17 12 15 10 10 12 9 9 8 9 5 22 41 30 19 23 23 20 18 13 12 11 13 9 8 10 9 6 6 4 1 2 13 19 16 13 17 15 15 24 34 35 36 36 43 47 50 54 54 55 55 56 57 57 58 58 58
36 32 31 29 33 33 31 32 33 32 31 33 29 30 29 30 31 33 37 34 35 36 36 35 33 33 32 28 29 26 17 11 12 14 12 16 15 11 6 7 8 14 35 25 30 20 19 18 18 19 16 10 8 5 9 9 7 5 4 7 4 6 11 20 17 15 17 16 12 23 38 38 32 33 36 44 47 51 52 52 53 55 56 56 57 57 55 57
32 33 33 35 33 29 29 30 32 32 33 33 32 32 31 30 32 32 35 37 38 36 35 34 35 34 33 30 28 27 32 22 16 20 14 15 12 14 13 10 9 25 29 11 15 20 20 18 19 19 16 9 6 6 6 6 7 8 6 10 8 7 12 21 27 14 23 17 14 28 34 31 24 30 36 44 45 51 51 52 54 55 57 57 56 56 57 56
36 34 33 36 32 31 32 32 33 33 33 34 35 33 31 31 32 34 34 35 36 35 37 31 35 35 33 31 31 29 34 31 23 22 21 17 18 16 15 11 7 9 10 16 15 28 21 16 21 18 18 11 6 7 7 7 8 8 11 9 9 13 13 17 22 18 16 25 22 23 30 31 28 28 34 43 50 52 52 53 54 54 56 56 55 55 55 56
33 33 31 35 34 31 32 33 33 34 34 35 31 33 32 32 32 34 36 36 33 36 38 35 37 36 36 32 34 34 37 39 40 37 36 38 19 16 16 17 11 10 9 16 16 26 20 14 21 19 15 18 17 9 6 10 11 8 7 9 12 17 12 9 17 26 28 24 22 23 30 30 29 39 36 48 52 51 52 52 53 54 55 55 54 54 55 55
39 41 40 34 31 30 32 32 32 32 31 33 32 32 31 32 32 34 33 34 36 35 37 36 35 38 36 37 39 39 39 40 40 40 38 37 19 16 16 16 8 13 10 14 20 28 24 20 21 21 15 16 15 13 9 11 15 13 12 12 12 16 21 19 18 22 23 22 24 27 25 22 34 40 43 44 50 50 50 50 51 52 54 54 53 53 54 55
39 38 38 38 30 33 30 31 31 31 28 35 32 32 32 32 33 34 32 32 36 36 34 33 34 38 39 38 38 38 39 39 39 39 36 35 31 21 10 13 10 16 16 17 23 17 21 20 18 15 13 16 20 13 15 16 18 14 21 18 17 20 20 17 11 18 24 28 25 23 17 39 41 42 41 42 45 49 49 48 49 52 53 54 52 53 53 54